When you browse on this site, cookies collect data to enhance your experience and personalize the content and advertising you see.
Visit our Privacy Policy to learn more. By continuing to use the site, you agree to this use of cookies and data.
  • Em Portugal
  • Lista de países
  • Para 7 dias
  • Temperatura da água
  • Mapas de satélite
  • Mapa do tempo
  • Widgets de tempo
  • user-avatar
    Iniciar Sessão

    Previsão horária em Lezhe

    Hoje, 16 Dezembro, Domingo

    Tempo Temperatura Precipitação Vento Pressão Humidade
    00:00 +7°C° 1.1 mm 2 m/s 735 mmHg 94%
    01:00 +7°C° 0 mm 3 m/s 735 mmHg 94%
    02:00 +7°C° 0.6 mm 3 m/s 735 mmHg 93%
    03:00 +7°C° 0.6 mm 3 m/s 735 mmHg 92%
    04:00 +5°C° 0.6 mm 3 m/s 735 mmHg 92%
    05:00 +6°C° 0.1 mm 2 m/s 736 mmHg 91%
    06:00 +6°C° 0.1 mm 2 m/s 736 mmHg 90%
    07:00 +5°C° 0 mm 2 m/s 736 mmHg 89%
    08:00 +5°C° 0 mm 2 m/s 737 mmHg 86%
    09:00 +6°C° 0 mm 2 m/s 737 mmHg 82%
    10:00 +6°C° 0 mm 2 m/s 738 mmHg 78%
    11:00 +6°C° 0 mm 2 m/s 738 mmHg 76%
    12:00 +7°C° 0 mm 2 m/s 738 mmHg 73%
    13:00 +6°C° 0 mm 2 m/s 737 mmHg 69%
    14:00 +6°C° 0 mm 2 m/s 738 mmHg 72%
    15:00 +5°C° 0 mm 2 m/s 738 mmHg 74%
    16:00 +4°C° 0 mm 2 m/s 738 mmHg 77%
    17:00 +3°C° 0 mm 2 m/s 739 mmHg 76%
    18:00 +3°C° 0 mm 2 m/s 739 mmHg 75%
    19:00 +2°C° 0 mm 2 m/s 739 mmHg 75%
    20:00 +2°C° 0 mm 2 m/s 739 mmHg 71%
    21:00 +2°C° 0 mm 2 m/s 739 mmHg 68%
    22:00 +2°C° 0 mm 2 m/s 739 mmHg 65%
    23:00 +2°C° 0 mm 2 m/s 739 mmHg 63%

    Amanhã, 17 Dezembro, Segunda-feira

    Tempo Temperatura Precipitação Vento Pressão Humidade
    00:00 +4°C° 0 mm 1 m/s 739 mmHg 61%
    01:00 +4°C° 0 mm 1 m/s 739 mmHg 59%
    02:00 +5°C° 0 mm 1 m/s 738 mmHg 58%
    03:00 +4°C° 0 mm 2 m/s 738 mmHg 57%
    04:00 +4°C° 0 mm 2 m/s 738 mmHg 56%
    05:00 +5°C° 0.1 mm 2 m/s 737 mmHg 57%
    06:00 +5°C° 0.1 mm 2 m/s 737 mmHg 58%
    07:00 +5°C° 0.1 mm 2 m/s 737 mmHg 58%
    08:00 +5°C° 0.3 mm 2 m/s 737 mmHg 63%
    09:00 +6°C° 0.3 mm 2 m/s 737 mmHg 67%
    10:00 +5°C° 0.3 mm 3 m/s 736 mmHg 71%
    11:00 +5°C° 0.6 mm 3 m/s 736 mmHg 75%
    12:00 +5°C° 0.6 mm 3 m/s 735 mmHg 80%
    13:00 +5°C° 0.6 mm 4 m/s 735 mmHg 84%
    14:00 +5°C° 1.4 mm 4 m/s 735 mmHg 85%
    15:00 +5°C° 1.4 mm 4 m/s 734 mmHg 87%
    16:00 +4°C° 1.4 mm 4 m/s 734 mmHg 88%
    17:00 +3°C° 2.6 mm 5 m/s 735 mmHg 89%
    18:00 +3°C° 2.6 mm 5 m/s 735 mmHg 89%
    19:00 +2°C° 2.6 mm 6 m/s 735 mmHg 90%
    20:00 +2°C° 1.2 mm 6 m/s 735 mmHg 89%
    21:00 +1°C° 1.2 mm 6 m/s 736 mmHg 87%
    22:00 +1°C° 1.2 mm 6 m/s 736 mmHg 86%
    23:00 +1°C° 0.4 mm 6 m/s 737 mmHg 85%

    Depois de amanhã, 18 Dezembro, Terça-feira

    Tempo Temperatura Precipitação Vento Pressão Humidade
    00:00 +1°C° 0.4 mm 6 m/s 737 mmHg 84%
    01:00 -1°C° 0.4 mm 6 m/s 737 mmHg 83%
    02:00 -1°C° 0 mm 6 m/s 737 mmHg 83%
    03:00 0°C° 0 mm 5 m/s 737 mmHg 83%
    04:00 0°C° 0 mm 5 m/s 738 mmHg 82%
    05:00 0°C° 0 mm 5 m/s 738 mmHg 82%
    06:00 0°C° 0 mm 5 m/s 739 mmHg 82%
    07:00 -2°C° 0 mm 6 m/s 739 mmHg 81%
    08:00 0°C° 0 mm 5 m/s 739 mmHg 81%
    09:00 +1°C° 0 mm 5 m/s 740 mmHg 80%
    10:00 +2°C° 0 mm 5 m/s 740 mmHg 79%
    11:00 +2°C° 0 mm 5 m/s 740 mmHg 80%
    12:00 +3°C° 0 mm 5 m/s 740 mmHg 81%
    13:00 +3°C° 0 mm 5 m/s 740 mmHg 81%
    14:00 +2°C° 0 mm 5 m/s 740 mmHg 81%
    15:00 +3°C° 0 mm 4 m/s 740 mmHg 82%
    16:00 +1°C° 0 mm 4 m/s 740 mmHg 82%
    17:00 +1°C° 0 mm 4 m/s 741 mmHg 82%
    18:00 0°C° 0 mm 4 m/s 741 mmHg 82%
    19:00 0°C° 0 mm 4 m/s 742 mmHg 83%
    20:00 0°C° 0 mm 4 m/s 742 mmHg 83%
    21:00 -1°C° 0 mm 4 m/s 742 mmHg 83%
    22:00 -1°C° 0 mm 4 m/s 742 mmHg 82%
    23:00 -1°C° 0 mm 4 m/s 743 mmHg 83%

    19 Dezembro, Quarta-feira

    Tempo Temperatura Precipitação Vento Pressão Humidade
    00:00 0°C° 0 mm 3 m/s 743 mmHg 83%
    01:00 0°C° 0 mm 3 m/s 743 mmHg 83%
    02:00 0°C° 0 mm 3 m/s 743 mmHg 82%
    03:00 0°C° 0 mm 3 m/s 743 mmHg 82%
    04:00 0°C° 0 mm 3 m/s 743 mmHg 82%
    05:00 0°C° 0 mm 3 m/s 743 mmHg 81%
    06:00 0°C° 0 mm 3 m/s 743 mmHg 81%
    07:00 +1°C° 0 mm 2 m/s 743 mmHg 80%
    08:00 +2°C° 0 mm 2 m/s 743 mmHg 81%
    09:00 +4°C° 0 mm 2 m/s 743 mmHg 82%
    10:00 +7°C° 0 mm 1 m/s 743 mmHg 84%
    11:00 +7°C° 0 mm 1 m/s 743 mmHg 83%
    12:00 +8°C° 0 mm 1 m/s 743 mmHg 82%
    13:00 +8°C° 0 mm 0 m/s 742 mmHg 81%
    14:00 +7°C° 0 mm 0 m/s 742 mmHg 80%
    15:00 +6°C° 0 mm 0 m/s 742 mmHg 79%
    16:00 +5°C° 0 mm 0 m/s 743 mmHg 79%
    17:00 +5°C° 0 mm 1 m/s 743 mmHg 78%
    18:00 +5°C° 0 mm 1 m/s 743 mmHg 76%
    19:00 +5°C° 0 mm 1 m/s 743 mmHg 75%
    20:00 +5°C° 0 mm 1 m/s 743 mmHg 73%
    21:00 +3°C° 0 mm 2 m/s 743 mmHg 72%
    22:00 +3°C° 0 mm 2 m/s 743 mmHg 70%
    23:00 +3°C° 0 mm 2 m/s 743 mmHg 69%

    20 Dezembro, Quinta-feira

    Tempo Temperatura Precipitação Vento Pressão Humidade
    00:00 +3°C° 0 mm 2 m/s 743 mmHg 68%
    01:00 +3°C° 0 mm 2 m/s 743 mmHg 67%
    02:00 +3°C° 0 mm 2 m/s 743 mmHg 66%
    03:00 +3°C° 0 mm 2 m/s 743 mmHg 66%
    04:00 +3°C° 0 mm 2 m/s 743 mmHg 65%
    05:00 +3°C° 0 mm 2 m/s 743 mmHg 64%
    06:00 +3°C° 0 mm 2 m/s 743 mmHg 63%
    07:00 +3°C° 0 mm 2 m/s 743 mmHg 62%
    08:00 +3°C° 0 mm 3 m/s 743 mmHg 66%
    09:00 +5°C° 0 mm 3 m/s 743 mmHg 70%
    10:00 +7°C° 0 mm 3 m/s 743 mmHg 74%
    11:00 +8°C° 0 mm 3 m/s 743 mmHg 76%
    12:00 +8°C° 0 mm 3 m/s 742 mmHg 78%
    13:00 +9°C° 0 mm 3 m/s 742 mmHg 80%
    14:00 +8°C° 0 mm 3 m/s 742 mmHg 80%
    15:00 +8°C° 0 mm 3 m/s 742 mmHg 79%
    16:00 +7°C° 0 mm 3 m/s 741 mmHg 79%
    17:00 +7°C° 0.1 mm 3 m/s 741 mmHg 79%
    18:00 +6°C° 0.1 mm 4 m/s 741 mmHg 79%
    19:00 +6°C° 0.1 mm 4 m/s 742 mmHg 79%
    20:00 +6°C° 0.4 mm 4 m/s 741 mmHg 82%
    21:00 +7°C° 0.4 mm 4 m/s 741 mmHg 84%
    22:00 +7°C° 0.4 mm 4 m/s 741 mmHg 86%
    23:00 +7°C° 0.9 mm 4 m/s 741 mmHg 88%

    21 Dezembro, Sexta-feira

    Tempo Temperatura Precipitação Vento Pressão Humidade
    00:00 +7°C° 0.9 mm 4 m/s 741 mmHg 90%
    01:00 +7°C° 0.9 mm 4 m/s 741 mmHg 92%
    02:00 +8°C° 0.7 mm 3 m/s 741 mmHg 93%
    03:00 +8°C° 0.7 mm 3 m/s 741 mmHg 94%
    04:00 +8°C° 0.7 mm 3 m/s 741 mmHg 95%
    05:00 +8°C° 0.2 mm 3 m/s 741 mmHg 95%
    06:00 +7°C° 0.2 mm 3 m/s 741 mmHg 95%
    07:00 +7°C° 0.2 mm 3 m/s 741 mmHg 95%
    08:00 +8°C° 0.3 mm 2 m/s 742 mmHg 94%
    09:00 +8°C° 0.3 mm 2 m/s 742 mmHg 92%
    10:00 +9°C° 0.3 mm 2 m/s 742 mmHg 91%
    11:00 +9°C° 0.1 mm 2 m/s 742 mmHg 88%
    12:00 +10°C° 0.1 mm 3 m/s 742 mmHg 86%
    13:00 +10°C° 0.1 mm 3 m/s 742 mmHg 83%
    14:00 +9°C° 0 mm 2 m/s 742 mmHg 84%
    15:00 +8°C° 0 mm 2 m/s 742 mmHg 86%
    16:00 +7°C° 0 mm 2 m/s 743 mmHg 87%
    17:00 +7°C° 0 mm 2 m/s 743 mmHg 88%
    18:00 +6°C° 0 mm 2 m/s 743 mmHg 89%
    19:00 +6°C° 0 mm 2 m/s 744 mmHg 89%
    20:00 +5°C° 0 mm 2 m/s 744 mmHg 90%
    21:00 +5°C° 0 mm 2 m/s 744 mmHg 91%
    22:00 +5°C° 0 mm 2 m/s 744 mmHg 91%
    23:00 +5°C° 0 mm 2 m/s 744 mmHg 90%
    Mostrar mais